Syracuse, NY

11:12 PM EST on February 12, 2016 (GMT -0500)
Syracuse Hancock International

Weather History for KSYR - July, 2012

Change the Weather History Date:

Sunday, July 15, 2012

  Actual Average Record
Temperature  
Mean Temperature 77 °F 72 °F  
Max Temperature 85 °F 82 °F 94 °F (1934)
Min Temperature 69 °F 61 °F 47 °F (1950)
Degree Days  
Heating Degree Days 0 0  
Month to date heating degree days 0 2  
Since 1 June heating degree days 43 63  
Since 1 July heating degree days 0 2  
Cooling Degree Days 12 7  
Month to date cooling degree days 169 97  
Year to date cooling degree days 428 240  
Since 1 June cooling degree days 333 210  
Growing Degree Days 28 (Base 50)    
Moisture  
Dew Point 67 °F    
Average Humidity 71    
Maximum Humidity 94    
Minimum Humidity 48    
Precipitation  
Precipitation 0.15 in 0.12 in 2.01 in (1955)
Month to date precipitation 0.37 1.82  
Year to date precipitation 15.29 19.06  
Snow  
Snow 0.00 in 0.00 in 0.00 in (2002)
Month to date snowfall 0.0 0.0  
Since 1 June snowfall 0.0 0.0  
Since 1 July snowfall 0.0 0.0  
Snow Depth 0.00 in    
Sea Level Pressure  
Sea Level Pressure 29.99 in    
Wind  
Wind Speed 4 mph (SW)    
Max Wind Speed 10 mph    
Max Gust Speed 15 mph    
Visibility 10 miles    
Events Rain    
T = Trace of Precipitation, MM = Missing Value Source: NWS Daily Summary

Daily Weather History Graph

Daily Weather History Graph

Search for Another Location

Airport or City:

Trip Planner

Search our weather history database for the weather conditions in past years. The results will help you decide how hot, cold, wet, or windy it might be!

Date:

Astronomy

Jul. 15, 2012 Rise Set
Actual Time 5:38 AM EDT 8:41 PM EDT
Civil Twilight 5:04 AM EDT 9:15 PM EDT
Nautical Twilight 4:21 AM EDT 9:59 PM EDT
Astronomical Twilight 3:29 AM EDT 10:50 PM EDT
Moon 2:33 AM EDT (7/15) 5:56 PM EDT (7/15)
Length of Visible Light 16h 10m
Length of Day
15h 02m
Waning Crescent, 12% of the Moon is Illuminated
Jul 15
Waning Crescent
Jul 19
New
Jul 26
First Quarter
Aug 1
Full
Aug 9
Last Quarter

Hourly Weather History & Observations

Time (EDT) Temp. Heat Index Dew Point Humidity Pressure Visibility Wind Dir Wind Speed Gust Speed Precip Events Conditions
12:54 AM 78.1 °F - 64.0 °F 62% 30.07 in 10.0 mi South 5.8 mph - N/A   Mostly Cloudy
1:54 AM 75.0 °F - 64.0 °F 69% 30.07 in 10.0 mi SSE 3.5 mph - N/A   Scattered Clouds
2:54 AM 73.9 °F - 64.0 °F 71% 30.05 in 10.0 mi SE 4.6 mph - N/A   Scattered Clouds
3:54 AM 72.0 °F - 64.9 °F 78% 30.05 in 10.0 mi East 4.6 mph - N/A   Overcast
4:54 AM 73.9 °F - 66.0 °F 76% 30.04 in 10.0 mi SE 3.5 mph - N/A   Overcast
5:54 AM 73.9 °F - 66.0 °F 76% 30.04 in 10.0 mi Calm Calm - N/A   Overcast
6:54 AM 73.9 °F - 66.9 °F 79% 30.04 in 10.0 mi Calm Calm - 0.00 in   Overcast
7:54 AM 77.0 °F - 68.0 °F 74% 30.04 in 10.0 mi East 3.5 mph - N/A   Overcast
8:54 AM 78.1 °F - 68.0 °F 71% 30.04 in 10.0 mi SSW 4.6 mph - 0.00 in Rain Light Rain
9:54 AM 78.1 °F - 68.0 °F 71% 30.04 in 10.0 mi SW 4.6 mph - 0.00 in Rain Light Rain
10:54 AM 75.0 °F - 72.0 °F 90% 30.03 in 5.0 mi Calm Calm - 0.11 in Rain Light Rain
11:54 AM 75.9 °F - 73.0 °F 91% 30.03 in 7.0 mi South 5.8 mph - 0.04 in Rain Light Rain
12:54 PM 79.0 °F - 72.0 °F 79% 30.02 in 10.0 mi SW 3.5 mph - 0.00 in   Overcast
1:36 PM 80.6 °F 85.4 °F 73.4 °F 79% 30.02 in 10.0 mi WNW 5.8 mph - 0.00 in   Overcast
1:54 PM 81.0 °F 85.2 °F 72.0 °F 74% 30.00 in 10.0 mi WNW 6.9 mph - 0.00 in   Overcast
2:24 PM 78.8 °F - 73.4 °F 83% 30.00 in 5.0 mi West 6.9 mph - 0.00 in Rain Light Rain
2:54 PM 79.0 °F - 70.0 °F 74% 29.97 in 10.0 mi West 4.6 mph - 0.00 in   Overcast
3:54 PM 80.1 °F 83.6 °F 71.1 °F 74% 29.95 in 10.0 mi West 8.1 mph - 0.00 in   Mostly Cloudy
4:54 PM 82.9 °F 87.0 °F 70.0 °F 65% 29.92 in 10.0 mi West 5.8 mph - N/A   Mostly Cloudy
5:54 PM 84.9 °F 86.1 °F 64.0 °F 49% 29.91 in 10.0 mi West 5.8 mph - N/A   Mostly Cloudy
6:54 PM 84.0 °F 84.5 °F 62.1 °F 47% 29.91 in 10.0 mi WNW 9.2 mph - N/A   Scattered Clouds
7:54 PM 82.0 °F 83.0 °F 62.1 °F 51% 29.91 in 10.0 mi West 8.1 mph - N/A   Scattered Clouds
8:54 PM 78.1 °F - 62.1 °F 58% 29.91 in 10.0 mi West 4.6 mph - N/A   Scattered Clouds
9:54 PM 73.0 °F - 64.9 °F 76% 29.92 in 10.0 mi Calm Calm - N/A   Scattered Clouds
10:54 PM 71.1 °F - 64.0 °F 78% 29.92 in 10.0 mi Calm Calm - N/A   Scattered Clouds
11:54 PM 72.0 °F - 64.9 °F 78% 29.92 in 10.0 mi Calm Calm - N/A   Mostly Cloudy